CZ-6A DEB, 61399

Orbit data source: Space-Track

CZ-6A DEB, 61399 is space debris in LEO originally from a launch on Tue, 06 Aug 2024 UTC launched from the Taiyaun Space Center, China (TSC). Debris objects in space refer to the collection of defunct objects orbiting the Earth. Examples of debris include non-operational satellites, rocket bodies, and fragments generated from explosions, collisions, or faulty payload assembly.

Loading next visibility...
Identifier
61399, 2024-140XQ
Orbit
LEO
Country
Flag of CNCN / PRC
Related business
Manufacturer
SAST
Mission
Spacecraft
Bus & Motor
Unknown
Mass
Unknown
Launch date (UTC)
2024-08-06 (2 years ago)
Launch vehicle
Unknown
Launch site
Taiyaun Space Center, China (TSC)
Object type
Payload
Rocket body
Debris
Shape & HBR
Unknown shape, 0.1 m
Radar Cross Section
Medium (>0.1 m² and <1 m²)

Expand to show TLE details & history
Last TLE update: 16 hours ago

TLE from 16 hours ago
0 CZ-6A DEB
1 61399U 24140XQ  26171.22904045  .00000076  00000-0  34729-4 0  9994
2 61399  88.9541 272.2453 0104930 199.9261 159.7812 14.07532931 91282
Epoch: 2026-06-20T05:29Z
TLE epoch observation values (Epoch: 2026-06-20T05:29:49.094Z)
Latitude
0.00001°
Longitude
-78.65592°
Altitude
942.317 km
Speed
7.344 km/s
True Right ascension
18h 08m 58s
True Declination
0° 00' 00"
Sunlit
Object was in full shadow at epoch
Visualization orbit readout
Latitude
Unknown
Longitude
Unknown
Altitude
Unknown
Speed
Unknown
Apparent Right ascension
Unknown
Apparent Declination
Unknown
Sunlit
N/A
Visualization observer readout
Local Sidereal Time
08:33:06
Azimuth
Unknown
Elevation
Unknown
Doppler factor
Unknown
Orbital elements
Apogee altitude
940.795 km
Perigee altitude
788.795 km
Semi-major axis
7,242.932 km
Eccentricity
0.01049
Inclination
88.9541°
RAAN
272.2453°
Arg. of periapsis
199.9261°
True anomaly
160.1917°
Mean anomaly
159.7812°
Eccentric anomaly
159.98695°
Mean motion
3.52104 °/min
Orbital period
102.24 mins
BSTAR
0.000034729
Loading maneuver chart data...
Computing Atmospheric mass density...
Loading historical data...
Loading historical data...
Loading historical data...
Loading historical data...
Loading historical data...
Loading historical data...
Loading historical data...

Documentation

Showing up to 5 results
|